Cloud_Cover
100 100 100 100 100 100 100 100 100 98 100 100 100 100 19 11 97 97 65 75 61 74 91 37 20 29 38 26 16 16 8 49 80 47 17 36 100 64 10 5 0 0 0 0
100 100 100 100 100 100 100 100 98 100 100 100 82 85 38 13 19 50 88 72 60 40 8 31 29 13 22 60 88 80 61 83 90 89 36 5 2 0 0 0 0 0 5 2
100 100 100 100 100 100 100 100 100 100 100 79 100 76 81 80 45 7 2 5 10 10 11 5 5 11 61 59 81 93 42 8 54 64 19 0 0 0 1 2 2 3 0 2
100 100 100 100 100 95 100 100 100 100 74 96 9 97 94 44 1 5 5 4 1 0 4 18 51 96 100 100 31 5 5 5 5 4 0 0 9 22 3 5 5 5 5 5
99 100 100 100 100 100 100 100 100 100 6 100 100 4 100 99 1 5 4 3 8 51 28 10 72 88 28 5 5 6 5 5 5 0 0 0 4 5 6 5 5 5 5 5
100 90 94 99 100 100 100 100 100 47 98 66 6 100 100 90 92 20 5 3 1 0 18 29 13 3 5 5 5 5 5 5 0 0 0 3 5 12 98 64 16 5 5 4
100 100 100 100 99 100 100 100 68 83 99 12 67 6 73 84 70 4 0 0 0 0 0 0 0 3 5 5 5 5 5 0 1 3 5 5 5 97 62 100 13 5 5 2
100 100 69 78 98 95 13 99 16 100 94 89 48 4 46 0 0 0 0 0 0 0 0 0 0 0 0 5 5 5 5 5 0 0 5 5 52 93 99 9 5 5 5 5
77 100 100 89 70 51 63 5 6 29 45 1 0 19 75 0 0 0 1 0 0 0 0 0 0 0 1 5 5 5 5 3 5 5 5 56 67 100 86 6 5 5 5 5
38 91 8 52 74 10 5 5 3 0 0 3 63 80 31 0 0 0 2 0 0 0 4 0 5 5 5 5 5 5 5 28 50 25 13 7 98 98 77 21 5 5 5 5
24 27 19 6 5 9 3 0 0 1 13 5 2 28 0 0 0 0 0 2 0 5 5 5 5 5 5 5 5 5 5 11 5 94 7 51 98 99 5 5 5 5 5 5
6 2 3 1 1 0 0 5 5 0 0 0 0 0 0 4 2 5 5 5 8 6 5 5 5 5 5 19 63 40 5 5 56 90 44 88 100 7 13 6 11 48 8 40
0 0 5 5 0 0 1 0 0 0 0 4 23 4 0 4 0 5 9 5 5 5 3 5 5 5 100 96 5 5 15 38 78 85 86 99 67 22 14 27 95 26 30 100
0 0 1 5 88 5 5 5 5 5 5 5 0 0 0 4 6 19 4 2 2 5 3 5 5 94 100 5 11 62 62 78 94 84 99 68 80 22 58 97 64 58 100 100
0 0 5 5 1 3 11 40 69 5 5 5 0 0 2 5 12 5 10 5 4 5 5 5 67 100 24 5 71 86 98 95 100 100 100 100 79 100 100 99 100 100 100 100
0 5 3 0 3 14 77 65 2 3 5 5 1 4 5 4 5 5 5 5 5 5 5 22 96 27 5 23 46 100 100 100 100 100 100 100 100 100 100 100 100 100 100 58
5 3 5 5 5 5 79 5 5 0 0 4 5 5 5 4 4 5 5 5 5 5 79 30 5 10 53 51 99 84 100 100 100 100 100 100 100 100 100 100 99 33 5 8
3 2 5 7 4 58 8 0 4 4 2 5 5 4 5 5 6 5 5 5 77 100 24 5 30 10 30 52 88 74 99 70 99 100 100 100 100 100 100 100 78 85 75 89
0 4 5 20 4 5 5 30 5 5 4 11 5 5 5 6 8 36 5 5 36 8 5 6 12 54 71 42 16 44 100 100 96 100 100 100 100 100 100 100 99 100 100 81
5 5 5 5 57 63 9 5 5 5 5 37 5 6 18 95 23 5 7 38 5 24 11 32 54 42 5 6 82 100 100 100 100 100 100 100 100 100 100 100 100 100 99 100
5 33 38 5 35 8 56 25 90 57 10 5 54 100 64 74 66 86 100 34 21 18 31 94 52 44 89 86 98 100 100 100 100 96 100 100 100 100 100 100 100 100 100 100
37 47 28 18 65 73 58 76 56 9 5 12 5 5 6 70 100 94 96 92 45 59 99 96 93 100 100 100 100 100 90 100 100 100 100 100 100 100 100 100 100 100 100 100
32 7 14 8 8 11 6 5 5 5 5 44 5 64 87 100 88 63 15 24 72 85 30 40 24 95 100 100 80 100 100 100 100 100 100 100 100 100 100 100 100 100 79 91
65 6 27 21 5 5 5 5 5 5 5 5 20 87 96 56 35 14 59 95 77 66 43 22 7 39 95 57 100 100 100 100 100 100 100 100 100 100 100 100 100 46 97 100
14 5 5 5 5 5 6 4 32 72 6 39 93 53 70 44 9 42 55 61 42 16 5 11 70 100 100 100 100 100 100 100 100 100 100 100 100 100 100 100 100 96 68 100
17 5 11 41 80 100 100 100 54 5 73 98 52 10 13 23 51 41 14 6 24 37 90 100 100 100 100 100 100 100 100 100 100 100 100 100 100 100 100 100 83 100 100 25